Location: Banksville Park
(38.5557°N, 75.1182°W)
Time: 18:56:00
(UTC+00:00)

SAR-Lupe-1 - Pass Details

Date: 18 January 2021
Orbit: 482 x 484 km, 98.2° (Epoch: 05 March)

Event Time Altitude Azimuth Distance (km) Brightness Sun altitude
Rises 09:39:08 0° 126° (SE) 2,539 8.5 -30.2°
Reaches altitude 10° 09:41:54 10° 101° (E) 1,664 7.7 -29.7°
Maximum altitude 09:43:55 15° 67° (ENE) 1,409 7.1 -29.3°
Enters shadow 09:45:50 10° 34° (NE) 1,651 7.1 -28.9°
